Wind_Speed
10 12 14 15 15 15 16 16 16 17 18 19 19 19 18 16 16 16 17 17 18 18 19 18 17 18 18 18 19 19 17 14 12 14 18 17 13 8 7 6 5 5 5 6 7 6 6 4 4 4 6 7 8 8 9 11 9 5 4 5 3 2 1 3 4 4 4 2 2 7 13 16 9 12 16 12 17 22 20 18 17 15 15 15 14 15 17 17
10 12 13 14 15 14 14 14 14 15 17 18 17 15 15 15 16 16 17 18 19 19 18 16 15 14 14 15 15 16 17 16 16 20 20 12 7 5 3 2 4 5 6 6 6 6 4 5 6 8 11 13 12 9 9 10 12 7 3 5 2 4 3 3 5 5 5 5 5 7 11 13 10 13 11 4 11 19 18 15 16 16 16 15 15 16 15 15
10 11 12 13 13 13 13 12 12 13 15 17 14 13 13 13 14 15 16 17 17 17 15 13 11 9 9 10 9 10 12 14 16 20 17 10 7 5 4 2 4 6 6 6 7 5 5 7 10 11 13 16 14 13 11 9 9 6 4 5 2 6 4 4 9 11 9 8 7 7 8 10 10 12 10 11 12 10 12 14 13 16 18 17 16 16 15 14
10 10 11 12 12 11 11 10 10 11 14 14 13 13 12 12 12 12 13 13 14 13 12 11 8 5 3 2 3 3 6 11 16 18 13 10 9 8 7 3 2 5 5 6 7 7 9 11 10 10 14 13 13 15 12 8 5 4 3 4 6 8 6 6 12 13 11 8 6 7 8 10 10 10 14 20 11 2 12 15 9 13 19 18 17 17 15 15
9 9 10 10 10 10 9 9 9 12 14 14 14 13 11 10 9 8 8 9 10 11 10 9 6 3 4 5 4 3 1 4 10 13 11 10 10 10 10 6 2 3 4 6 8 7 9 11 10 10 11 8 9 10 8 9 11 6 3 11 14 10 6 8 12 11 10 9 8 10 7 7 8 8 15 16 5 4 14 13 8 11 15 15 16 16 15 13
9 8 9 9 9 10 9 8 11 14 14 14 12 10 9 8 7 6 4 4 8 10 10 8 4 2 6 3 3 3 2 3 6 11 11 11 11 11 11 8 5 1 2 4 7 7 8 9 8 9 8 6 7 6 5 7 10 5 3 12 14 10 10 11 12 11 10 10 10 10 6 8 9 6 8 9 4 8 13 12 12 13 14 14 13 14 13 11
8 8 9 9 8 9 9 10 13 14 13 12 10 8 8 7 7 6 6 9 12 13 11 9 7 10 16 16 11 11 15 11 8 11 11 11 11 10 10 8 7 2 4 6 7 9 9 10 12 13 9 5 6 7 9 12 13 10 4 8 11 12 16 14 13 12 10 10 9 10 9 10 9 5 5 7 8 12 13 13 15 15 15 14 13 12 11 10
8 7 9 10 9 9 10 12 14 14 11 9 8 8 8 9 10 9 11 14 15 15 13 10 7 8 10 11 12 18 19 12 11 11 10 10 10 9 8 7 7 2 6 8 9 11 11 14 16 12 7 4 6 6 10 14 11 7 4 8 11 12 17 14 12 12 11 13 11 11 10 8 8 7 7 10 12 14 15 16 15 15 15 14 13 12 11 10
9 8 9 10 9 9 11 12 14 13 10 8 8 9 9 10 12 13 14 14 13 13 10 6 3 2 2 2 5 13 13 10 11 11 9 9 10 9 7 9 9 5 7 8 7 8 8 12 11 9 9 7 8 7 6 7 4 2 7 11 12 12 16 13 10 11 11 12 10 8 8 9 11 7 6 11 15 15 16 16 15 15 14 14 12 12 11 9
10 9 10 9 9 10 11 12 12 12 11 9 10 11 11 10 11 13 12 9 7 6 3 2 3 1 2 1 4 8 7 7 9 8 9 10 9 10 11 14 13 10 10 9 7 8 10 14 14 15 16 10 10 8 5 6 4 6 11 14 14 12 13 9 9 11 9 7 5 6 7 13 11 2 3 13 17 16 17 16 15 14 14 13 12 12 10 10
11 10 10 9 9 11 12 11 11 12 12 11 11 12 13 11 11 12 10 8 7 5 5 7 7 6 5 8 14 10 5 7 8 8 9 9 11 13 15 17 17 16 15 14 12 10 12 16 17 14 11 10 11 9 8 5 4 11 16 12 6 6 8 5 5 7 6 4 3 9 10 8 5 3 6 17 20 18 18 17 16 15 14 13 13 12 12 12
12 11 10 9 10 12 11 9 9 11 12 11 10 11 12 11 11 13 14 12 9 8 9 10 10 7 6 14 21 12 6 8 8 8 9 11 13 14 15 15 16 17 17 19 18 10 10 13 11 8 7 10 8 5 6 4 5 11 12 6 3 4 4 3 2 2 3 3 7 11 7 2 5 5 7 18 23 20 18 17 17 16 15 14 14 14 14 14
12 11 10 10 10 12 10 8 9 10 9 8 8 9 9 8 10 15 14 9 5 5 5 6 5 1 2 11 17 10 6 8 7 8 9 13 14 13 14 13 13 16 16 20 19 10 8 10 9 12 13 9 4 5 7 7 9 8 5 4 2 6 3 3 4 1 2 4 11 7 2 5 6 5 10 21 24 22 20 19 19 17 16 16 16 17 16 16
11 10 10 9 10 11 9 8 9 9 7 6 7 7 6 5 9 13 10 6 6 6 5 6 4 2 6 11 11 8 6 6 4 7 11 14 13 13 13 12 11 13 14 19 18 12 10 10 13 16 15 10 8 7 6 6 7 3 3 3 2 3 4 9 6 0 4 3 9 3 3 5 6 8 17 23 24 23 22 21 20 19 18 18 18 18 18 17
11 10 9 9 10 11 9 9 9 8 8 8 8 8 7 7 9 12 10 7 6 6 7 8 6 7 12 12 8 7 5 3 5 7 11 12 12 13 14 13 13 12 12 16 18 15 13 14 15 13 9 8 8 5 4 5 5 3 2 3 3 2 4 10 5 3 4 3 4 2 3 6 5 12 21 24 25 25 23 22 22 21 20 20 20 19 19 17
11 9 9 9 9 9 9 9 9 8 9 9 9 9 9 9 9 10 9 6 6 8 7 8 7 7 10 8 6 6 6 5 7 7 9 9 9 10 10 11 11 10 10 13 15 16 15 15 17 18 13 6 4 4 4 4 4 4 2 1 4 2 4 6 3 2 3 2 2 3 2 5 4 11 23 25 26 26 23 23 23 22 22 21 21 20 19 18
11 9 10 11 9 8 8 8 8 7 7 8 9 9 8 9 9 8 7 6 8 8 7 9 9 8 8 6 4 7 9 7 6 6 7 7 6 6 5 4 6 7 8 9 9 10 14 14 12 12 14 9 3 3 3 4 4 4 3 1 3 2 2 5 4 4 6 4 3 2 3 6 6 9 23 27 27 27 24 24 25 24 23 22 21 21 20 18
11 10 11 10 8 8 6 6 6 6 6 7 8 8 8 9 9 7 5 6 7 5 3 4 5 5 6 5 4 6 9 7 4 6 7 7 6 6 5 3 3 2 4 7 8 9 10 11 7 3 6 7 5 6 3 2 2 4 3 2 3 2 2 4 5 4 7 6 5 6 5 8 7 6 20 26 28 28 26 25 25 25 24 23 22 22 20 18
12 11 11 11 10 10 7 6 7 7 8 7 8 8 8 9 7 4 5 6 4 4 1 4 5 4 3 4 3 3 8 9 4 4 6 6 6 4 6 6 4 2 4 5 9 12 8 7 6 3 4 5 3 4 4 5 5 5 5 2 3 4 4 5 6 4 4 5 7 5 6 7 6 6 15 23 27 27 26 25 24 25 25 24 23 22 20 19
13 13 14 14 13 12 9 9 11 12 12 10 10 10 8 8 6 5 8 10 12 10 5 8 12 10 6 5 2 2 6 11 7 3 5 5 6 4 5 6 6 10 8 2 4 8 7 6 6 3 3 6 4 3 2 4 4 4 3 3 4 4 5 6 7 6 4 4 5 5 5 9 8 7 13 21 23 22 23 22 24 26 26 25 24 23 21 20
15 16 16 13 11 9 9 11 13 11 7 7 7 5 4 6 5 7 13 15 15 13 9 10 12 11 10 9 6 1 2 8 11 8 4 4 5 2 4 5 5 9 7 2 2 4 6 7 2 2 4 4 2 1 2 3 2 2 2 1 4 3 6 8 5 5 5 5 5 5 5 10 9 7 12 18 17 19 24 24 24 27 26 25 24 23 22 20
16 18 14 9 8 8 8 9 8 3 2 3 4 4 5 7 8 11 14 12 12 13 11 9 8 7 8 9 9 3 3 7 11 12 8 5 5 2 6 9 7 4 6 3 3 4 7 4 4 5 4 1 4 4 5 5 4 3 2 1 3 3 5 7 3 2 4 3 6 6 5 10 9 5 9 16 17 18 25 27 27 27 26 26 25 24 23 21
18 17 11 8 9 9 7 6 4 3 4 6 8 9 12 13 14 14 13 11 8 9 9 8 8 7 6 7 8 6 7 8 9 13 12 8 9 9 9 9 5 3 6 4 3 3 4 0 3 1 2 4 4 5 6 5 3 2 1 1 4 3 2 4 4 4 6 3 5 7 7 8 5 2 6 14 17 15 18 24 26 27 27 26 25 24 23 22
17 14 10 10 11 9 7 5 5 6 8 11 13 15 14 12 12 11 10 8 5 5 6 6 8 8 6 6 5 8 14 12 10 13 13 9 8 8 7 6 5 4 4 5 7 7 3 2 2 5 6 5 3 5 6 5 4 2 2 2 4 4 2 6 5 8 9 4 2 5 7 6 1 2 5 8 12 12 14 18 22 26 27 25 24 24 23 23
15 11 11 11 9 7 6 6 6 5 6 8 8 7 6 5 5 5 5 5 2 2 4 3 5 6 5 7 3 4 10 11 12 13 12 10 6 4 5 4 4 2 2 2 8 6 2 2 2 4 6 5 4 3 3 3 4 4 3 5 5 6 5 6 5 7 6 4 2 5 5 6 3 3 7 4 5 9 11 14 20 24 25 25 26 26 25 24
12 11 11 9 8 6 6 6 5 4 4 4 3 2 1 1 2 2 2 4 2 3 2 1 3 4 5 9 2 4 3 5 10 13 9 9 6 4 4 3 4 2 5 1 5 2 0 3 4 4 4 5 5 2 1 4 3 3 3 5 5 4 5 6 4 2 2 4 3 4 2 5 5 4 7 4 5 9 8 12 20 24 25 27 29 28 26 25
10 10 10 9 7 5 5 4 2 2 3 3 4 4 1 0 2 1 1 5 2 2 1 0 2 3 6 10 3 5 1 1 4 11 11 8 5 4 4 2 3 2 3 3 2 1 1 3 6 5 5 5 5 2 3 4 3 3 3 1 4 7 7 6 2 3 3 4 4 2 3 3 5 5 4 2 5 9 9 12 17 24 29 31 32 31 28 28
9 10 9 7 5 3 3 2 1 0 1 3 3 4 2 1 2 1 3 4 2 0 3 1 2 4 4 7 7 6 3 1 2 9 11 8 5 5 4 2 4 2 1 4 1 2 1 0 1 3 5 4 1 3 4 4 2 6 6 6 7 8 7 4 3 4 2 3 4 4 2 1 6 5 3 2 3 7 11 12 15 24 31 33 34 32 30 30
8 8 7 5 2 1 2 3 3 3 3 3 2 3 2 2 1 2 5 2 1 1 2 1 2 2 2 3 7 9 6 4 3 6 8 7 5 5 6 4 7 6 3 3 3 3 0 1 4 5 4 0 4 5 5 6 2 7 9 8 4 2 2 1 4 2 2 3 4 5 1 0 6 5 1 1 3 7 10 10 12 22 28 30 31 31 30 30
6 6 4 2 1 3 4 5 5 5 5 3 2 3 3 2 2 5 3 2 0 1 0 1 1 3 4 1 4 8 5 5 6 6 6 7 7 7 9 6 5 6 3 5 2 2 1 1 2 3 2 3 4 5 2 6 5 8 9 7 4 3 2 2 2 3 4 2 6 5 2 2 3 6 3 3 5 7 7 6 8 15 22 24 25 27 27 28
5 4 3 4 5 6 7 7 6 5 4 3 3 5 4 2 4 5 1 2 1 1 0 2 2 3 4 1 1 5 4 4 8 7 5 5 6 7 7 4 3 4 3 5 3 3 3 1 1 1 2 2 2 3 2 1 1 6 4 3 4 4 3 3 4 4 3 4 5 4 1 2 3 6 4 5 7 6 6 7 7 11 18 20 20 23 24 25
4 5 5 7 8 8 9 8 6 4 4 3 5 5 4 2 1 2 2 1 1 1 0 0 2 2 3 2 2 3 2 3 7 6 3 3 4 5 4 1 1 4 4 3 3 3 2 2 3 2 2 1 1 2 4 3 5 6 3 3 5 3 4 3 4 2 1 5 4 4 1 1 6 9 8 9 10 9 12 14 12 13 17 18 18 20 22 24
6 7 8 8 8 8 8 8 5 5 4 5 6 3 5 4 2 4 1 1 0 1 1 1 1 1 1 2 2 2 1 1 4 4 2 2 4 2 2 0 2 1 2 1 2 4 3 4 4 1 1 1 2 2 2 3 4 4 2 3 3 2 5 4 4 3 3 5 3 3 1 3 6 7 9 11 11 13 18 21 19 17 17 18 17 17 20 23
7 7 7 7 6 7 6 5 5 6 6 7 5 3 5 2 5 3 1 3 1 2 2 2 2 2 2 1 1 2 1 1 2 3 2 2 4 1 2 3 3 2 2 2 1 2 2 4 3 1 1 1 2 2 3 2 1 2 2 3 3 2 1 2 2 1 4 6 4 1 0 3 4 4 7 9 11 12 16 20 20 19 20 19 18 18 20 23
5 5 5 5 4 5 4 5 6 6 9 8 4 5 3 4 4 2 3 4 2 1 1 2 3 3 3 3 2 1 1 1 1 3 4 2 2 1 1 3 3 3 3 2 0 1 1 4 4 1 1 1 2 1 3 4 1 2 2 3 1 2 4 2 3 4 1 5 5 2 2 5 4 8 7 4 9 11 13 16 18 21 23 21 22 23 23 25
2 2 2 2 2 2 3 5 7 8 10 8 5 3 4 4 2 3 2 2 3 3 2 2 3 3 2 3 3 3 1 1 1 2 2 1 2 2 1 2 1 1 3 3 1 1 1 5 4 2 1 2 2 2 2 2 1 0 2 0 2 3 5 3 2 2 3 2 4 2 4 5 4 8 6 4 6 9 9 13 17 22 24 22 25 27 26 27
1 0 1 2 1 2 4 6 8 9 9 6 4 2 5 2 1 2 0 2 2 4 5 2 1 2 2 2 2 3 1 1 1 1 1 1 1 3 2 1 2 2 2 3 2 2 1 4 4 1 1 1 2 2 2 2 2 2 1 3 2 2 4 3 1 4 4 1 4 3 5 8 4 4 6 4 6 9 8 11 15 20 21 23 28 29 27 26
1 1 1 2 2 3 5 6 8 9 5 4 1 3 3 1 1 1 0 1 1 3 4 3 2 1 3 2 2 3 1 1 1 1 2 1 1 3 4 1 2 2 2 1 1 1 2 2 5 1 2 2 1 2 1 3 2 3 3 4 2 1 1 1 0 2 2 3 5 4 6 6 4 5 6 5 7 9 9 8 10 14 19 24 27 27 25 25
1 1 1 2 3 3 5 6 7 7 4 3 2 3 1 2 1 2 2 1 1 3 2 3 1 1 3 3 3 3 2 3 2 1 1 1 1 2 4 3 2 2 2 1 2 1 3 1 4 2 1 2 2 1 2 2 1 3 3 1 2 2 3 1 0 2 1 2 4 4 5 5 6 6 6 9 10 8 8 7 8 14 21 24 24 24 24 25
3 2 1 3 4 3 4 6 6 4 3 1 4 2 0 1 2 3 3 1 1 1 1 2 2 2 3 3 2 2 2 3 4 3 2 1 1 2 3 3 4 3 1 1 2 1 2 2 3 4 3 2 1 3 5 5 3 2 1 1 1 0 1 0 0 3 3 2 2 2 5 9 8 5 7 11 11 8 8 8 9 15 21 22 22 23 24 24
2 1 1 3 4 4 5 5 3 4 3 1 2 1 0 1 3 3 4 2 1 0 1 2 3 3 3 2 2 2 2 2 2 2 2 2 1 1 3 5 6 5 2 2 1 1 1 3 3 4 3 2 4 4 4 6 6 5 4 4 3 2 2 0 3 1 2 3 4 2 4 12 9 3 6 10 8 8 11 11 11 17 21 21 22 23 23 24
1 1 0 3 5 5 5 4 4 4 3 2 1 1 0 1 2 3 3 2 1 1 1 1 2 2 2 2 2 3 3 2 2 2 2 3 2 2 4 6 7 6 5 2 1 2 2 3 1 4 5 4 4 2 2 3 3 4 3 3 3 4 5 4 3 3 1 1 2 3 2 11 8 4 5 8 8 12 15 14 15 19 21 22 23 23 23 24
1 2 1 3 6 5 4 2 3 3 2 1 1 1 1 2 2 2 2 2 1 1 0 0 1 1 2 2 2 3 3 2 3 3 2 3 2 2 6 7 6 6 4 1 1 2 2 2 1 4 5 2 2 2 2 2 2 1 3 3 4 3 4 5 5 3 2 3 2 2 3 11 8 3 6 9 11 14 16 16 18 20 23 24 24 25 25 25
3 3 2 3 6 5 3 1 1 0 2 1 1 1 1 1 1 2 2 2 2 2 1 1 1 1 1 1 2 2 2 2 2 2 2 3 2 3 6 7 6 6 4 2 3 5 3 1 2 2 6 6 4 4 4 3 1 3 4 3 4 4 6 4 2 3 1 5 7 4 5 11 8 2 4 7 8 11 16 18 19 21 25 27 26 27 27 26
3 2 1 2 6 6 3 3 4 4 2 1 1 1 1 1 1 2 1 2 3 3 1 0 1 2 1 2 2 1 0 0 1 0 1 1 1 3 5 6 5 5 4 3 5 6 3 2 3 2 2 4 5 5 4 2 2 2 2 4 4 7 9 5 2 3 3 5 7 6 7 12 13 9 8 9 8 10 15 18 19 22 26 28 28 29 29 27
2 0 0 0 3 5 3 2 3 4 4 4 1 1 2 1 1 1 1 2 2 3 2 1 2 2 2 2 1 1 1 1 1 1 1 2 2 1 3 5 4 4 5 5 5 4 2 1 3 5 6 7 8 7 2 2 1 5 5 6 6 7 8 6 4 4 5 3 4 10 13 15 22 20 16 15 13 12 14 16 19 23 27 29 30 30 29 28
0 1 1 0 1 2 2 2 3 3 4 6 2 1 3 1 1 1 2 2 2 4 2 0 2 2 1 2 2 1 2 1 1 1 2 3 2 1 1 4 3 4 6 6 4 3 3 2 5 7 11 12 10 9 5 3 6 11 9 6 8 8 8 8 7 8 5 4 7 13 11 10 19 21 18 19 19 16 15 18 24 28 30 31 30 29 28 29
0 2 2 2 1 1 1 1 3 4 4 4 2 2 3 2 1 2 3 1 1 4 2 1 2 5 5 5 3 2 2 1 2 3 2 2 1 2 1 2 3 5 5 4 3 4 4 4 5 5 8 13 10 10 10 7 9 11 10 9 9 9 11 14 17 12 8 6 14 15 8 10 18 21 20 21 21 20 23 28 32 33 34 33 30 29 29 30
1 1 2 3 2 2 2 1 3 6 4 2 1 1 4 4 4 4 2 2 1 3 3 2 5 6 6 5 3 3 3 2 2 4 3 3 2 1 1 2 3 4 4 3 2 2 3 3 4 2 5 12 11 10 10 8 7 9 12 12 11 11 14 17 19 14 11 14 20 20 19 20 21 21 21 26 33 33 34 34 33 34 35 33 30 30 31 33
1 1 2 3 2 3 4 2 5 6 3 2 0 1 3 6 6 4 2 4 1 1 4 4 6 5 5 5 5 4 6 5 2 3 4 5 2 3 3 3 3 3 2 2 0 1 3 3 2 3 3 10 8 5 4 5 6 10 16 15 11 10 12 14 16 11 8 14 20 20 18 19 21 22 21 29 37 33 29 29 28 32 35 31 30 31 33 35
3 2 2 2 2 3 3 3 4 4 1 0 2 2 2 5 7 4 2 4 4 3 5 7 5 2 3 3 6 6 7 6 3 3 5 6 4 4 4 4 6 6 3 3 1 2 3 3 3 5 3 7 2 5 7 8 8 11 18 18 11 7 8 9 10 8 9 11 14 11 10 12 17 17 15 21 26 23 23 27 27 31 33 29 29 33 36 37
3 3 3 2 1 1 2 2 3 2 2 3 3 4 3 4 7 8 3 3 4 4 5 7 5 4 3 3 7 7 5 4 2 2 3 4 4 3 3 5 8 8 6 4 1 1 4 1 1 3 2 6 3 6 8 9 9 9 11 9 7 6 6 6 7 9 12 9 6 6 9 12 13 13 13 16 17 17 23 28 27 30 34 33 33 36 38 39
Wind_Direction
100 96 92 94 98 102 106 106 110 114 113 108 105 105 105 110 119 125 130 132 133 130 127 119 108 99 90 86 80 76 76 80 96 93 74 53 43 43 31 30 65 97 111 117 127 121 118 90 43 56 75 63 54 54 55 51 42 53 81 76 100 118 117 156 175 164 122 164 39 83 119 123 125 118 115 96 87 99 100 106 119 127 134 144 155 165 175 187
108 103 96 94 96 100 107 114 118 119 117 111 106 108 110 113 120 125 129 132 134 134 132 125 115 104 93 87 80 78 72 71 83 74 63 55 56 59 35 39 76 97 109 117 134 124 102 67 76 101 91 70 58 64 66 52 48 57 104 84 137 188 167 151 132 131 115 126 114 93 116 123 140 152 146 122 106 111 105 110 129 132 139 152 162 174 185 194
114 112 104 97 96 96 101 114 124 125 119 112 109 114 119 124 128 130 134 135 138 139 138 135 126 113 99 90 82 77 65 63 66 54 50 59 60 51 40 72 104 108 112 125 146 126 93 90 101 104 88 70 58 70 69 47 44 49 92 78 209 184 138 132 107 100 104 112 115 101 103 100 130 162 156 147 140 127 131 138 142 147 156 163 170 182 192 200
119 119 113 102 99 95 94 101 118 126 116 110 113 117 120 126 129 137 146 149 149 146 144 147 149 142 117 81 69 67 56 51 39 31 36 50 49 39 33 37 127 124 122 135 144 118 103 109 115 103 84 70 59 68 57 39 61 46 84 127 180 157 114 123 110 94 91 90 108 123 110 95 118 157 152 142 130 177 181 166 161 166 167 171 178 186 196 205
121 124 122 110 102 95 94 98 107 116 114 115 119 116 114 117 122 135 155 172 176 170 162 163 182 216 284 275 247 263 318 32 17 22 36 43 43 35 29 23 51 135 144 147 149 133 121 119 115 95 80 68 55 63 51 67 94 55 62 148 156 148 124 124 109 91 94 98 122 138 132 124 127 134 153 160 151 203 190 182 184 177 172 178 183 190 200 210
122 126 132 124 107 99 102 110 110 112 118 123 123 116 111 112 115 114 118 146 166 173 174 177 183 59 38 58 182 216 119 92 13 25 38 39 42 37 31 26 23 40 181 164 169 165 153 139 113 89 79 68 61 69 61 80 114 95 84 145 152 148 133 126 105 91 103 109 124 144 160 157 136 107 153 182 179 165 173 175 178 176 176 184 190 196 206 219
125 128 138 134 113 102 103 111 114 116 124 128 123 113 110 112 107 100 107 117 125 137 150 156 129 81 71 78 98 100 90 80 39 38 41 38 42 42 38 35 26 338 201 160 152 148 143 133 111 97 89 80 78 76 73 82 108 114 123 142 136 135 135 130 107 94 99 105 124 147 157 156 142 126 141 143 141 158 168 171 175 176 181 189 196 203 215 230
125 129 139 133 116 105 103 110 116 123 129 126 119 111 107 109 109 110 119 121 120 125 134 137 117 92 84 84 86 78 67 52 43 49 43 41 49 49 48 51 43 49 166 139 129 132 123 113 112 103 81 79 108 107 92 86 83 90 139 138 117 126 142 135 106 99 101 108 131 138 136 152 156 151 138 137 149 162 167 171 177 179 186 195 204 215 226 236
122 127 137 132 120 111 108 112 118 127 131 120 113 104 99 106 117 125 123 120 120 124 128 123 118 123 79 58 79 62 42 32 44 52 50 53 59 59 66 63 53 69 115 115 127 141 125 116 127 118 106 108 104 108 108 93 59 97 145 138 121 127 148 147 116 109 108 117 131 107 97 134 144 134 132 155 161 166 171 176 182 186 193 200 212 227 234 246
122 125 135 131 122 114 111 113 116 122 118 111 105 97 96 105 126 141 142 136 129 131 130 143 187 210 338 269 119 67 30 38 50 62 65 65 75 76 75 67 58 62 79 90 106 121 116 116 124 111 103 100 89 80 79 94 105 126 130 127 126 135 146 151 139 128 115 114 106 91 128 146 144 121 198 179 173 176 179 181 188 194 201 208 219 232 240 255
124 125 134 133 126 120 116 112 112 116 110 104 102 99 98 105 127 145 151 137 115 110 98 108 120 100 87 100 96 78 41 51 61 81 81 84 99 89 75 66 61 58 64 71 75 99 117 119 122 111 95 92 91 74 65 76 112 126 123 112 104 128 124 112 145 152 117 95 104 122 138 156 170 267 224 190 184 188 190 189 194 200 208 215 223 232 242 253
128 127 130 129 129 130 126 115 114 121 110 100 106 111 105 104 125 134 132 122 108 110 110 115 116 100 78 71 72 69 51 52 66 87 92 103 104 90 74 63 59 56 57 61 58 78 130 143 140 122 121 115 103 73 66 69 109 122 119 107 359 24 82 71 79 169 82 112 161 130 110 252 226 251 221 190 185 191 197 196 197 202 210 216 223 231 241 251
136 129 120 114 122 134 134 119 121 129 116 102 114 127 120 113 135 141 133 116 104 123 142 170 171 270 355 58 59 62 52 46 69 94 103 110 104 88 74 65 62 60 56 57 52 60 111 155 161 121 118 118 102 102 96 84 97 106 78 88 19 9 348 324 8 292 59 138 174 142 23 275 240 230 186 182 184 189 196 198 199 203 209 216 223 232 240 248
144 136 122 112 124 137 135 125 128 129 112 105 119 137 145 137 150 161 156 120 109 113 123 155 150 71 96 84 62 61 55 40 71 111 113 109 100 88 78 71 66 65 65 63 61 71 96 137 146 114 98 91 98 106 84 49 65 77 19 41 46 39 290 313 338 12 52 162 190 173 299 267 258 212 178 183 189 189 195 198 201 204 210 218 225 233 243 250
145 140 131 124 134 139 133 128 126 118 109 111 122 137 145 134 141 162 166 143 121 112 114 126 113 84 90 85 66 63 64 67 90 123 125 111 100 91 79 72 64 64 73 74 75 86 104 126 116 88 70 82 92 82 42 10 15 34 42 322 343 75 282 315 336 91 57 250 218 61 279 269 263 206 186 188 193 195 201 201 202 207 213 221 227 234 245 254
139 132 126 123 131 133 128 126 121 114 115 117 122 133 144 140 137 150 162 154 125 112 113 121 109 86 83 77 68 59 59 78 84 111 130 118 104 96 82 68 58 56 70 81 84 88 98 102 81 58 48 60 69 64 45 12 355 2 73 241 298 323 305 323 329 41 44 271 292 40 247 273 280 202 191 192 196 200 204 204 205 210 217 223 231 239 246 255
134 122 114 112 116 119 120 127 130 127 125 129 127 126 139 144 142 147 150 140 129 113 90 100 100 79 72 73 62 41 41 59 82 110 122 112 99 93 92 78 64 63 69 85 87 83 82 76 70 57 47 42 29 74 60 348 332 325 26 82 278 275 296 316 304 329 23 28 326 329 244 259 279 199 190 194 199 202 205 208 209 213 221 227 234 241 247 254
129 117 111 111 115 116 122 140 152 160 154 155 149 134 138 146 147 140 129 137 145 137 84 74 84 76 65 50 34 22 26 42 89 117 117 112 100 81 77 103 133 81 46 68 54 46 62 61 76 89 39 32 25 59 85 262 254 277 313 333 304 291 254 283 284 312 12 10 317 311 280 265 286 215 195 198 200 205 210 214 215 217 223 229 235 241 246 252
123 114 112 112 115 115 128 151 163 170 160 158 154 139 147 155 147 132 139 156 130 113 61 13 48 102 90 22 20 38 39 44 64 134 137 119 108 92 74 88 118 72 41 54 27 27 53 61 61 59 12 3 3 86 141 223 220 239 260 236 265 286 271 262 265 286 4 334 291 279 268 270 282 231 203 203 203 208 216 218 219 221 224 229 235 241 245 252
121 116 116 110 108 110 127 146 143 140 132 132 131 124 138 137 108 77 100 103 83 85 94 66 70 86 82 37 36 121 58 51 54 118 156 139 131 122 77 83 84 62 49 46 10 21 59 67 44 30 323 315 291 172 175 250 218 216 237 240 257 267 280 279 269 281 357 339 270 239 266 278 268 236 210 204 204 210 217 218 218 220 224 230 235 241 245 252
125 123 121 109 108 117 137 149 140 134 127 133 136 135 170 151 117 104 97 85 76 80 80 75 75 72 66 45 35 135 118 65 64 78 119 162 160 141 39 57 68 49 14 1 71 25 60 74 30 279 258 286 296 145 57 27 101 150 170 227 305 285 282 291 272 282 12 23 276 261 283 281 268 242 211 199 200 212 214 215 218 220 226 232 237 242 247 253
134 132 122 109 118 130 149 159 153 166 237 208 209 224 194 159 137 127 111 92 81 76 67 70 76 67 62 42 33 54 134 70 55 58 68 106 122 100 63 65 68 42 346 13 82 21 48 68 282 270 236 148 53 51 49 53 77 70 101 90 318 297 300 306 278 272 19 30 285 299 306 278 266 239 214 202 204 217 218 218 223 225 228 234 238 242 249 253
142 136 118 112 120 124 140 148 124 93 96 123 143 139 132 129 122 115 108 103 90 73 61 62 61 50 48 38 32 50 77 60 28 33 44 69 84 80 80 71 64 40 4 26 107 81 68 39 288 348 146 129 58 17 38 39 47 53 49 30 293 297 359 304 300 324 323 270 259 300 302 281 267 228 234 219 216 229 231 228 231 233 235 240 243 247 251 253
145 132 116 119 118 118 126 124 106 96 100 111 120 121 118 119 118 110 101 98 92 65 52 47 39 34 33 25 21 53 65 58 26 22 31 54 81 74 78 79 64 58 22 41 84 93 105 256 324 49 63 107 91 13 43 37 358 326 211 193 269 285 229 238 285 327 320 299 253 314 309 294 304 241 256 234 225 240 240 232 233 235 238 244 246 248 250 253
139 125 121 125 121 122 120 107 99 104 120 125 126 124 114 116 116 103 87 80 73 13 24 23 11 13 11 0 351 77 63 55 38 24 28 47 73 92 88 78 60 92 227 49 72 88 95 316 337 49 39 63 95 58 66 75 358 325 243 208 239 264 254 258 307 341 340 336 346 22 350 299 319 262 254 243 227 244 237 231 235 234 235 238 240 244 249 254
129 125 127 132 132 125 106 89 87 107 148 163 197 208 122 125 114 110 89 62 24 306 350 8 358 359 354 353 329 159 64 41 37 25 29 42 51 113 103 44 51 140 208 155 76 111 151 19 54 92 59 43 66 57 139 124 66 334 240 196 221 248 263 274 306 357 338 285 284 66 96 272 308 278 259 249 230 248 245 242 244 239 237 237 239 246 252 257
126 131 135 141 136 112 82 75 74 118 160 207 234 225 230 154 115 150 76 41 354 272 46 279 349 16 10 9 32 160 77 333 38 21 27 36 31 106 120 14 61 110 178 129 59 310 178 32 35 57 57 46 42 359 237 147 101 276 254 19 311 294 285 275 247 189 236 280 304 38 128 257 293 272 284 297 238 256 259 253 251 245 243 242 244 249 254 258
132 138 143 145 131 92 68 43 329 294 200 242 231 212 222 139 139 140 93 69 303 251 69 153 119 55 39 39 58 99 72 69 93 9 15 36 37 79 101 123 136 142 119 123 174 281 157 346 350 79 57 37 348 255 215 155 130 262 279 322 304 286 277 254 180 187 254 354 322 319 94 256 276 269 344 12 237 263 258 248 248 245 245 246 248 251 254 257
140 146 148 150 130 26 328 309 294 277 264 262 231 211 194 142 186 49 80 114 280 106 96 141 143 22 344 37 44 55 57 46 55 2 9 43 47 68 96 120 134 127 67 97 169 219 111 206 186 130 92 283 255 254 209 162 211 289 310 316 298 291 290 169 131 131 45 30 273 267 101 78 279 271 326 25 239 253 252 246 245 245 247 250 251 252 254 253
150 158 161 188 265 300 293 291 284 269 261 258 217 182 144 117 97 61 53 239 298 125 197 352 241 304 337 7 24 28 48 40 24 13 26 60 63 76 102 114 114 113 50 36 92 219 335 117 175 126 140 218 264 286 238 183 245 326 344 330 339 27 40 77 82 80 64 338 258 236 138 95 302 278 227 202 225 219 228 248 248 246 249 250 249 250 251 249
167 186 216 257 273 283 281 282 280 258 242 233 184 152 138 91 78 91 202 230 99 285 302 12 310 350 13 104 61 2 21 24 11 21 34 43 42 45 72 90 55 59 16 4 16 314 345 30 245 261 235 269 342 327 334 169 338 7 1 325 350 352 13 26 359 38 62 291 254 209 182 136 241 270 242 228 239 216 211 234 236 237 243 247 249 252 251 247
201 225 251 266 271 276 272 272 270 235 221 201 170 157 136 70 42 167 243 334 31 283 152 53 317 39 26 39 55 339 348 18 10 39 58 30 35 23 30 121 134 39 1 324 338 333 319 260 291 317 256 279 46 3 346 3 26 22 0 14 26 354 3 7 332 8 261 265 219 184 289 253 229 255 260 256 254 235 223 225 230 235 240 250 256 256 253 248
228 243 258 267 272 276 268 262 249 215 201 168 164 152 91 85 236 217 234 355 272 301 77 102 19 83 57 25 24 315 357 22 357 35 74 77 67 20 335 126 149 67 335 295 353 354 337 296 314 351 252 272 90 82 355 326 357 9 9 53 66 32 8 330 306 337 289 272 220 181 296 282 271 271 250 246 251 245 237 234 238 244 249 259 263 260 255 246
238 250 263 273 275 271 261 243 221 196 178 162 153 97 82 144 234 205 223 251 238 5 42 91 42 38 45 55 277 289 67 2 341 34 21 37 61 19 312 336 17 70 87 83 44 28 21 309 282 175 251 332 95 132 156 161 347 308 188 118 109 117 84 279 273 287 295 294 286 328 124 219 272 277 222 231 260 261 248 240 241 248 253 258 260 257 250 243
243 258 270 280 271 257 245 212 197 176 172 168 109 71 127 222 240 181 215 231 200 8 13 54 66 56 11 332 312 338 108 283 1 55 28 38 115 153 251 303 347 68 98 77 337 140 90 274 257 261 297 116 106 182 143 107 53 267 147 93 62 177 154 168 220 207 266 316 295 279 227 212 243 271 257 267 283 270 250 243 242 247 251 252 253 252 247 246
243 275 268 268 256 230 199 187 176 167 174 161 77 73 196 230 233 176 188 154 146 158 128 56 69 85 321 303 334 0 40 290 16 55 13 47 166 181 176 242 277 105 129 125 175 132 48 278 277 8 353 91 98 200 151 112 202 76 70 128 233 163 128 112 282 293 63 2 284 281 276 284 309 290 298 350 298 274 257 250 245 247 250 249 250 251 250 251
59 6 222 213 212 176 174 176 166 169 174 139 96 207 215 226 190 181 152 74 142 135 118 139 202 159 227 257 283 300 333 319 354 76 234 253 184 176 168 240 244 207 181 137 173 179 133 280 287 48 236 298 98 138 88 72 144 108 147 209 171 83 83 98 317 343 42 256 274 306 285 293 324 303 316 340 281 268 258 247 247 250 250 248 250 253 254 255
72 138 182 172 162 161 168 167 166 169 151 103 125 244 209 182 222 194 161 87 119 88 103 169 217 175 188 193 238 241 174 203 265 100 182 234 237 161 147 187 229 236 256 108 116 163 118 298 295 271 206 269 76 126 11 3 68 116 161 164 109 66 333 37 36 332 1 296 285 290 281 277 236 237 285 289 259 262 261 246 245 249 246 246 251 255 258 259
206 177 139 145 154 157 158 160 168 163 114 89 229 251 193 196 230 168 171 167 102 96 140 204 197 85 173 174 191 203 183 196 186 134 182 200 240 175 147 166 191 214 256 145 139 182 110 128 283 295 242 287 3 133 243 287 31 74 99 82 29 137 171 198 122 161 205 277 286 305 318 292 230 209 239 262 260 262 263 250 239 244 245 246 252 259 262 262
216 174 111 142 156 156 157 159 158 136 95 139 207 204 167 214 202 168 168 174 130 133 211 218 157 137 194 191 188 178 172 195 173 157 211 195 187 214 183 175 165 167 235 80 121 143 87 140 253 299 326 318 276 215 196 186 166 119 107 289 315 98 145 229 218 146 149 175 236 299 312 284 260 211 216 252 264 255 246 247 247 248 250 253 257 264 268 267
190 158 107 156 155 155 157 142 101 84 97 130 190 172 324 186 168 168 171 169 142 141 196 186 168 177 181 178 211 191 150 179 178 160 218 202 167 234 199 175 164 157 138 78 106 174 135 158 216 291 313 258 243 235 182 172 167 154 178 196 183 160 127 64 294 280 119 154 188 174 291 280 273 199 212 244 252 246 241 239 247 254 257 261 267 269 270 270
169 105 97 166 161 158 148 108 43 53 107 132 144 137 177 156 140 154 170 167 140 89 122 166 169 166 159 163 198 178 141 164 197 181 217 203 188 201 174 164 170 164 141 123 237 215 147 118 151 268 261 240 260 296 95 150 162 145 182 188 148 135 130 141 237 255 173 189 186 119 258 272 260 169 199 233 234 251 255 243 245 258 264 267 272 274 273 273
107 102 122 174 172 160 133 74 8 20 59 132 135 113 142 163 145 146 165 171 166 133 64 243 183 171 200 186 161 168 172 188 188 182 209 209 193 181 166 160 172 167 137 110 242 177 125 89 106 274 286 314 320 334 41 59 101 179 228 170 145 155 143 153 180 184 193 209 175 116 245 267 269 189 207 240 244 255 262 255 250 257 267 272 274 276 276 276
91 93 112 172 187 184 164 176 192 258 298 327 72 79 129 174 160 153 183 203 177 147 136 205 202 196 212 123 114 176 200 200 190 177 185 191 185 172 167 168 177 175 174 210 173 158 182 184 99 327 323 338 350 346 340 338 184 222 242 177 151 119 103 113 131 98 272 216 169 154 243 261 269 196 195 246 259 264 268 268 263 262 271 278 279 281 280 277
88 78 88 170 204 210 213 203 165 157 181 116 90 203 182 107 173 172 182 193 177 161 154 218 179 157 110 64 71 55 65 48 279 302 88 162 212 181 175 186 194 194 203 192 150 149 180 217 137 120 309 296 299 310 309 277 219 222 213 180 170 139 135 151 123 111 247 223 161 171 238 266 280 287 286 282 279 279 281 282 277 271 276 281 283 285 283 277
85 102 337 332 213 204 201 204 161 143 155 151 143 219 171 127 241 202 163 179 193 177 159 155 143 115 49 63 86 320 302 1 23 111 162 209 250 233 182 190 199 192 175 156 148 137 106 267 210 191 211 234 250 261 272 80 262 264 241 199 191 180 161 135 110 176 207 174 190 224 236 269 286 288 294 298 295 292 293 293 288 285 286 287 287 287 284 277
89 200 229 64 204 181 133 161 163 142 158 166 162 184 179 187 320 226 209 222 204 184 166 129 165 166 177 158 152 237 255 346 16 169 186 200 225 341 194 191 187 180 165 158 170 126 82 285 241 208 229 247 257 270 297 348 273 265 259 220 195 188 167 157 196 212 156 116 260 251 219 240 274 283 291 297 298 299 298 297 296 295 294 292 290 289 283 277
177 211 212 186 215 182 91 156 174 133 131 153 145 138 166 181 211 196 206 214 186 192 192 302 235 207 193 176 162 183 205 294 270 223 186 177 188 37 11 223 199 186 178 172 189 144 118 258 240 195 247 268 269 269 275 273 261 260 259 244 218 192 178 195 222 217 159 192 256 266 252 249 270 282 288 290 292 294 293 294 295 294 293 292 290 286 280 276
183 182 187 185 210 160 121 169 161 131 114 105 85 140 166 185 217 224 181 98 337 238 196 229 259 235 203 180 148 161 197 214 269 244 193 162 183 142 137 248 210 189 183 162 206 179 148 248 249 168 284 285 274 265 262 256 264 271 260 245 225 206 197 209 231 226 201 232 255 267 276 275 274 276 279 283 286 287 288 289 290 290 290 290 287 281 278 277
225 210 179 161 130 95 97 121 137 128 95 47 10 221 174 182 213 233 170 154 201 251 179 212 258 239 194 176 157 186 216 194 190 251 188 154 178 193 194 208 167 156 175 155 186 195 169 258 282 101 316 287 281 297 287 252 260 277 276 264 237 215 211 221 240 235 214 243 256 264 275 277 273 271 270 275 279 282 284 284 285 287 289 288 284 281 279 279
238 253 221 153 107 79 96 121 125 118 64 250 207 215 195 203 205 184 159 195 197 185 187 208 230 188 138 180 202 236 250 211 199 258 204 185 209 211 213 203 156 140 166 186 163 149 173 271 350 61 344 281 302 6 326 297 285 277 279 276 252 207 203 219 232 210 191 227 254 270 276 269 270 274 268 268 273 278 283 285 287 289 290 287 282 282 282 282
246 259 242 176 96 105 153 127 95 110 225 219 191 190 209 234 197 168 161 255 211 196 217 216 194 142 119 217 230 250 264 226 237 289 226 223 249 240 240 213 174 157 161 168 162 154 155 171 8 50 311 273 308 346 322 319 318 287 265 250 212 193 211 236 249 219 196 205 244 261 257 262 280 293 288 281 280 281 284 288 291 292 291 289 284 283 284 284
Height
1553 1553 1552 1552 1553 1552 1552 1553 1553 1554 1554 1554 1555 1555 1556 1557 1557 1557 1557 1557 1557 1557 1557 1558 1557 1557 1557 1557 1557 1557 1557 1557 1556 1554 1553 1555 1556 1556 1556 1555 1554 1554 1553 1553 1552 1552 1552 1552 1551 1551 1550 1550 1550 1550 1550 1551 1550 1550 1557 1565 1571 1575 1574 1573 1574 1574 1575 1576 1577 1578 1577 1577 1582 1583 1581 1583 1583 1582 1583 1583 1583 1584 1584 1585 1585 1586 1587 1587
1554 1554 1554 1554 1554 1554 1554 1554 1555 1555 1554 1555 1556 1557 1558 1558 1558 1558 1558 1558 1558 1558 1558 1558 1558 1558 1558 1558 1558 1558 1558 1558 1556 1554 1554 1557 1557 1556 1556 1555 1555 1554 1553 1553 1552 1552 1552 1552 1551 1551 1551 1551 1551 1552 1551 1552 1552 1554 1562 1567 1572 1575 1573 1572 1573 1573 1574 1575 1576 1577 1577 1577 1579 1581 1581 1583 1585 1583 1583 1585 1585 1584 1584 1585 1585 1586 1586 1586
1555 1555 1555 1555 1555 1555 1555 1555 1556 1556 1555 1556 1557 1558 1558 1559 1560 1560 1559 1559 1559 1559 1559 1559 1559 1559 1558 1558 1558 1558 1558 1558 1556 1555 1557 1558 1557 1557 1556 1555 1555 1554 1553 1553 1553 1552 1552 1552 1552 1551 1551 1551 1553 1553 1552 1553 1555 1557 1562 1569 1573 1573 1572 1573 1573 1573 1574 1574 1575 1576 1577 1577 1578 1579 1579 1581 1584 1583 1582 1583 1584 1583 1583 1583 1583 1584 1584 1585
1555 1555 1556 1556 1556 1555 1556 1556 1556 1556 1556 1557 1558 1559 1559 1560 1560 1561 1560 1560 1560 1560 1560 1560 1560 1559 1559 1559 1558 1559 1558 1557 1558 1559 1559 1559 1557 1557 1555 1555 1554 1554 1553 1553 1553 1552 1552 1551 1552 1551 1551 1553 1554 1554 1554 1555 1557 1559 1562 1568 1572 1571 1571 1573 1573 1573 1573 1573 1574 1574 1576 1576 1577 1578 1578 1579 1581 1583 1581 1579 1580 1580 1580 1581 1581 1582 1583 1583
1556 1556 1557 1557 1557 1556 1557 1557 1557 1557 1557 1558 1559 1560 1560 1561 1561 1561 1561 1561 1561 1561 1561 1560 1560 1560 1559 1558 1558 1558 1558 1560 1562 1561 1560 1559 1558 1556 1555 1554 1554 1554 1554 1553 1553 1552 1552 1552 1551 1551 1552 1554 1556 1556 1558 1558 1558 1562 1566 1567 1569 1570 1571 1573 1573 1573 1573 1573 1573 1574 1575 1576 1577 1578 1578 1577 1577 1578 1578 1577 1578 1578 1578 1579 1580 1581 1582 1582
1556 1557 1557 1558 1558 1557 1557 1557 1558 1558 1558 1560 1560 1561 1561 1561 1561 1561 1561 1560 1560 1560 1561 1561 1561 1561 1559 1557 1557 1557 1558 1563 1564 1562 1560 1559 1558 1557 1556 1555 1554 1554 1554 1553 1553 1552 1552 1552 1551 1552 1554 1557 1558 1558 1560 1560 1559 1564 1569 1569 1569 1570 1570 1573 1573 1573 1573 1573 1573 1573 1574 1575 1576 1577 1577 1576 1575 1575 1575 1577 1577 1578 1578 1579 1579 1580 1580 1581
1556 1557 1558 1558 1558 1558 1558 1558 1558 1559 1560 1561 1561 1561 1561 1562 1562 1561 1561 1561 1560 1560 1561 1562 1562 1561 1559 1558 1559 1558 1558 1563 1564 1562 1561 1559 1558 1558 1557 1556 1555 1554 1553 1554 1553 1552 1552 1552 1552 1553 1555 1558 1559 1560 1561 1561 1560 1564 1569 1570 1570 1570 1570 1573 1573 1573 1573 1573 1573 1573 1574 1575 1575 1576 1576 1576 1575 1575 1576 1577 1577 1577 1578 1578 1579 1579 1579 1579
1557 1558 1558 1559 1559 1559 1559 1559 1559 1560 1562 1562 1562 1562 1562 1562 1562 1562 1562 1562 1561 1561 1562 1562 1562 1562 1561 1561 1560 1559 1560 1563 1564 1562 1561 1560 1560 1559 1558 1557 1556 1555 1554 1554 1553 1552 1552 1552 1553 1554 1556 1559 1560 1561 1562 1562 1564 1565 1568 1570 1570 1571 1571 1573 1573 1573 1573 1572 1573 1573 1573 1575 1575 1575 1576 1576 1576 1576 1576 1577 1577 1577 1577 1578 1578 1578 1578 1578
1558 1558 1559 1559 1559 1559 1559 1560 1560 1561 1562 1562 1562 1562 1562 1562 1562 1563 1563 1563 1563 1562 1563 1562 1562 1562 1561 1561 1560 1560 1563 1564 1564 1563 1562 1561 1561 1561 1559 1558 1557 1556 1554 1554 1553 1552 1552 1553 1554 1554 1556 1559 1560 1561 1562 1562 1566 1567 1568 1570 1570 1571 1572 1573 1573 1573 1572 1572 1572 1573 1575 1575 1575 1576 1576 1577 1576 1576 1577 1577 1577 1577 1577 1577 1577 1577 1577 1577
1558 1559 1559 1559 1560 1560 1560 1561 1561 1561 1562 1562 1563 1563 1563 1563 1563 1564 1563 1564 1563 1563 1563 1562 1563 1562 1561 1561 1560 1562 1566 1565 1564 1564 1563 1562 1562 1562 1560 1559 1558 1557 1555 1554 1554 1553 1553 1553 1554 1555 1556 1558 1561 1562 1562 1563 1566 1567 1568 1570 1571 1572 1573 1572 1572 1572 1572 1572 1571 1572 1575 1575 1576 1577 1576 1576 1577 1576 1577 1577 1577 1576 1577 1577 1577 1577 1577 1576
1559 1560 1560 1560 1561 1561 1561 1562 1562 1562 1563 1563 1564 1563 1563 1563 1563 1564 1564 1564 1564 1564 1563 1563 1563 1562 1562 1561 1560 1564 1567 1566 1565 1565 1564 1564 1563 1562 1561 1560 1559 1557 1556 1554 1554 1554 1555 1555 1555 1555 1557 1559 1561 1563 1564 1564 1566 1567 1568 1570 1572 1572 1572 1572 1572 1572 1571 1571 1571 1571 1575 1577 1577 1575 1572 1573 1575 1576 1576 1576 1576 1576 1576 1576 1576 1576 1576 1575
1560 1560 1561 1561 1562 1562 1562 1563 1563 1563 1564 1564 1564 1564 1564 1564 1564 1564 1564 1565 1565 1564 1564 1563 1563 1563 1563 1561 1561 1566 1567 1566 1566 1565 1565 1564 1564 1563 1561 1561 1560 1559 1557 1555 1555 1556 1555 1556 1556 1555 1558 1561 1562 1564 1565 1566 1567 1567 1568 1571 1573 1572 1571 1571 1572 1571 1569 1571 1571 1571 1574 1576 1575 1573 1569 1571 1573 1575 1575 1575 1575 1575 1575 1575 1575 1575 1574 1574
1560 1561 1561 1562 1562 1563 1563 1564 1564 1564 1564 1564 1565 1565 1565 1565 1565 1565 1565 1565 1565 1565 1564 1564 1563 1563 1563 1563 1565 1567 1567 1567 1567 1566 1566 1565 1564 1564 1562 1562 1561 1560 1559 1557 1556 1556 1556 1556 1557 1557 1559 1561 1563 1565 1565 1566 1567 1568 1570 1571 1573 1573 1572 1571 1571 1571 1569 1570 1571 1571 1570 1568 1570 1571 1569 1571 1572 1573 1574 1574 1573 1573 1573 1573 1573 1573 1572 1572
1561 1561 1562 1563 1563 1564 1564 1565 1565 1565 1564 1565 1565 1565 1565 1565 1565 1565 1565 1565 1565 1565 1565 1564 1564 1563 1563 1565 1568 1568 1568 1568 1567 1567 1567 1566 1565 1565 1563 1563 1562 1561 1560 1559 1558 1558 1557 1557 1557 1558 1561 1562 1564 1565 1566 1568 1568 1571 1573 1574 1578 1574 1570 1570 1570 1570 1570 1571 1571 1571 1569 1564 1567 1570 1569 1570 1571 1571 1572 1572 1572 1571 1572 1572 1571 1571 1570 1570
1561 1562 1562 1563 1563 1564 1564 1565 1565 1565 1565 1565 1565 1565 1565 1565 1565 1566 1566 1566 1566 1566 1566 1565 1565 1564 1564 1566 1569 1569 1569 1568 1568 1568 1567 1567 1566 1565 1565 1564 1563 1562 1561 1560 1560 1559 1559 1559 1558 1561 1563 1564 1565 1567 1570 1572 1573 1577 1573 1572 1581 1578 1573 1572 1570 1570 1571 1572 1571 1571 1569 1564 1565 1568 1568 1569 1569 1570 1571 1570 1570 1570 1570 1570 1569 1569 1568 1568
1562 1562 1562 1563 1564 1564 1564 1565 1565 1565 1565 1565 1566 1566 1566 1566 1566 1567 1567 1567 1566 1566 1566 1566 1565 1564 1565 1568 1569 1569 1569 1568 1568 1568 1567 1567 1567 1566 1565 1564 1564 1563 1562 1562 1561 1561 1560 1559 1561 1564 1566 1567 1570 1572 1573 1573 1575 1581 1577 1572 1578 1579 1577 1575 1570 1571 1572 1571 1570 1570 1569 1564 1563 1566 1567 1568 1568 1569 1569 1568 1568 1568 1568 1568 1567 1567 1566 1566
1562 1562 1562 1563 1564 1564 1565 1565 1565 1566 1566 1566 1566 1566 1567 1567 1567 1567 1568 1567 1567 1567 1567 1566 1565 1565 1567 1569 1570 1570 1569 1569 1568 1568 1568 1567 1567 1566 1566 1565 1565 1564 1564 1562 1562 1562 1561 1561 1564 1569 1571 1573 1575 1573 1570 1570 1572 1579 1582 1579 1580 1581 1581 1577 1571 1571 1571 1571 1570 1570 1569 1564 1563 1565 1565 1566 1567 1567 1567 1566 1566 1566 1566 1566 1566 1565 1564 1563
1562 1562 1562 1563 1564 1564 1565 1565 1565 1566 1566 1566 1567 1567 1567 1568 1568 1568 1568 1568 1568 1567 1567 1567 1565 1566 1569 1570 1571 1571 1570 1569 1568 1568 1568 1567 1567 1567 1566 1565 1565 1565 1564 1563 1563 1563 1563 1565 1568 1572 1575 1576 1579 1578 1574 1576 1578 1580 1581 1581 1582 1584 1583 1580 1575 1571 1571 1571 1570 1569 1567 1563 1563 1565 1565 1565 1566 1565 1564 1564 1564 1564 1564 1564 1564 1563 1562 1561
1562 1562 1563 1564 1564 1564 1565 1565 1565 1566 1566 1567 1567 1567 1568 1568 1568 1569 1569 1569 1569 1569 1569 1569 1567 1568 1572 1572 1572 1571 1570 1569 1568 1568 1568 1568 1567 1567 1566 1565 1565 1564 1564 1565 1566 1566 1566 1569 1572 1574 1579 1581 1584 1585 1583 1584 1584 1583 1584 1585 1585 1585 1582 1579 1576 1572 1572 1571 1568 1566 1564 1561 1562 1563 1563 1563 1564 1564 1563 1563 1563 1562 1562 1562 1561 1560 1560 1559
1562 1563 1564 1565 1565 1565 1566 1566 1567 1567 1567 1567 1567 1568 1568 1569 1569 1570 1570 1570 1570 1571 1573 1572 1570 1571 1572 1572 1572 1571 1570 1569 1568 1568 1567 1567 1567 1567 1566 1566 1566 1565 1566 1569 1570 1570 1569 1572 1580 1582 1584 1585 1585 1587 1586 1586 1586 1585 1586 1586 1585 1584 1580 1577 1575 1573 1573 1571 1565 1564 1564 1561 1560 1560 1561 1562 1562 1563 1562 1561 1561 1560 1560 1559 1559 1558 1557 1557
1562 1563 1565 1565 1566 1567 1567 1568 1568 1568 1568 1568 1568 1568 1569 1568 1569 1570 1571 1572 1573 1573 1573 1573 1572 1572 1572 1573 1572 1571 1571 1570 1568 1567 1567 1567 1567 1567 1567 1566 1566 1567 1571 1572 1571 1572 1570 1574 1584 1586 1584 1585 1585 1586 1586 1585 1586 1585 1585 1584 1582 1582 1578 1574 1574 1573 1573 1573 1567 1563 1564 1559 1556 1557 1558 1560 1560 1559 1558 1558 1558 1557 1557 1557 1556 1556 1555 1555
1563 1564 1566 1566 1567 1568 1568 1569 1569 1568 1568 1568 1568 1568 1569 1569 1569 1569 1569 1572 1574 1574 1574 1574 1573 1574 1573 1573 1572 1571 1571 1569 1569 1568 1567 1567 1566 1567 1568 1568 1569 1572 1574 1572 1572 1575 1576 1580 1585 1584 1584 1585 1585 1586 1585 1584 1584 1584 1584 1584 1581 1581 1579 1573 1572 1573 1574 1575 1567 1562 1563 1556 1553 1556 1556 1556 1557 1555 1555 1555 1554 1555 1555 1554 1553 1553 1553 1553
1564 1565 1567 1567 1567 1568 1569 1569 1569 1569 1568 1567 1568 1568 1569 1569 1570 1569 1568 1570 1574 1575 1575 1575 1574 1574 1574 1574 1573 1572 1570 1570 1570 1569 1568 1567 1566 1568 1569 1570 1573 1575 1575 1574 1572 1573 1577 1583 1585 1583 1584 1584 1584 1585 1585 1583 1583 1583 1583 1582 1581 1582 1583 1576 1571 1572 1572 1573 1568 1563 1562 1554 1551 1554 1554 1554 1554 1553 1554 1553 1553 1553 1551 1551 1550 1550 1550 1550
1566 1567 1567 1567 1568 1568 1570 1570 1569 1569 1569 1569 1570 1569 1570 1571 1570 1569 1569 1570 1574 1575 1575 1575 1575 1575 1574 1574 1574 1572 1571 1571 1572 1570 1569 1568 1568 1569 1570 1573 1575 1577 1580 1579 1576 1575 1579 1584 1584 1584 1584 1583 1584 1584 1585 1584 1581 1583 1583 1580 1579 1580 1583 1580 1576 1574 1571 1569 1568 1566 1558 1548 1551 1555 1551 1552 1554 1552 1553 1552 1551 1550 1549 1549 1548 1548 1547 1547
1566 1567 1567 1568 1569 1569 1570 1570 1570 1570 1570 1571 1571 1571 1571 1571 1570 1570 1569 1572 1575 1576 1576 1575 1576 1575 1575 1574 1573 1573 1572 1572 1573 1572 1571 1570 1569 1570 1572 1573 1574 1578 1583 1582 1579 1579 1582 1584 1583 1584 1584 1584 1584 1583 1586 1586 1582 1582 1580 1579 1579 1578 1580 1580 1580 1579 1572 1565 1565 1568 1558 1544 1549 1555 1550 1551 1553 1550 1551 1550 1548 1547 1547 1547 1545 1544 1544 1544
1567 1567 1568 1569 1570 1570 1570 1570 1571 1571 1571 1572 1572 1572 1572 1571 1571 1570 1570 1574 1576 1576 1576 1576 1576 1575 1574 1574 1573 1572 1573 1573 1574 1573 1572 1571 1571 1571 1572 1575 1576 1578 1582 1582 1581 1582 1583 1584 1583 1584 1584 1584 1583 1583 1586 1587 1586 1581 1576 1577 1578 1578 1580 1579 1580 1581 1573 1565 1565 1570 1566 1553 1549 1547 1546 1551 1552 1550 1549 1548 1545 1544 1544 1543 1542 1541 1541 1541
1567 1568 1569 1569 1570 1571 1570 1571 1571 1571 1572 1572 1572 1572 1572 1571 1571 1569 1571 1578 1579 1576 1576 1576 1577 1576 1575 1574 1573 1572 1573 1574 1574 1573 1572 1572 1571 1571 1572 1576 1577 1578 1581 1582 1579 1581 1583 1583 1583 1584 1583 1582 1581 1582 1585 1587 1586 1577 1573 1577 1577 1577 1578 1577 1580 1581 1577 1571 1568 1570 1570 1565 1554 1544 1548 1553 1551 1549 1549 1545 1542 1541 1540 1539 1538 1538 1538 1538
1568 1569 1569 1570 1570 1570 1571 1571 1572 1571 1572 1572 1572 1572 1571 1571 1571 1569 1573 1581 1580 1576 1576 1576 1576 1576 1575 1575 1574 1573 1574 1574 1574 1574 1573 1572 1572 1571 1572 1576 1578 1579 1581 1580 1576 1580 1583 1582 1583 1583 1583 1583 1582 1583 1584 1585 1583 1576 1575 1577 1575 1576 1575 1576 1580 1579 1580 1575 1566 1567 1571 1568 1554 1543 1551 1557 1550 1548 1544 1540 1538 1535 1535 1535 1534 1534 1534 1534
1568 1569 1569 1570 1570 1570 1571 1571 1571 1572 1571 1571 1571 1571 1571 1571 1570 1570 1576 1581 1578 1576 1577 1576 1575 1576 1576 1576 1575 1574 1574 1574 1574 1575 1574 1573 1573 1572 1573 1576 1578 1578 1580 1580 1578 1580 1583 1582 1583 1583 1583 1584 1582 1583 1583 1583 1581 1577 1576 1574 1573 1576 1575 1577 1578 1574 1579 1574 1562 1565 1570 1568 1554 1538 1545 1553 1546 1542 1536 1533 1533 1531 1531 1531 1530 1531 1530 1531
1568 1568 1569 1570 1570 1570 1570 1570 1571 1571 1571 1571 1570 1571 1571 1570 1571 1576 1582 1580 1576 1576 1576 1575 1576 1577 1577 1576 1576 1576 1576 1575 1576 1575 1574 1574 1574 1573 1575 1576 1577 1579 1580 1581 1580 1582 1584 1583 1583 1583 1582 1584 1583 1582 1582 1581 1580 1578 1577 1575 1572 1574 1574 1575 1577 1576 1575 1566 1561 1568 1569 1571 1561 1536 1535 1540 1533 1530 1529 1528 1529 1527 1527 1527 1526 1527 1527 1527
1568 1569 1569 1569 1570 1570 1569 1570 1570 1570 1570 1570 1570 1571 1570 1571 1574 1580 1582 1577 1575 1577 1575 1576 1578 1578 1578 1577 1576 1577 1577 1576 1577 1576 1576 1577 1577 1575 1575 1575 1577 1578 1579 1580 1580 1583 1585 1582 1582 1583 1582 1583 1583 1581 1581 1581 1582 1579 1580 1578 1569 1567 1570 1569 1572 1575 1566 1553 1560 1574 1571 1574 1567 1536 1526 1531 1527 1526 1526 1524 1524 1524 1524 1523 1523 1523 1523 1524
1568 1569 1569 1569 1569 1569 1569 1569 1569 1569 1570 1569 1570 1570 1570 1574 1576 1576 1577 1575 1575 1576 1576 1578 1579 1579 1580 1579 1579 1580 1579 1578 1578 1579 1580 1582 1582 1582 1582 1582 1582 1577 1574 1579 1580 1580 1583 1584 1584 1583 1582 1583 1582 1580 1580 1581 1582 1579 1580 1580 1571 1568 1569 1564 1567 1573 1564 1552 1562 1575 1569 1569 1560 1533 1522 1525 1523 1524 1523 1520 1521 1521 1520 1520 1520 1521 1520 1521
1568 1568 1568 1568 1568 1568 1568 1568 1568 1568 1568 1569 1570 1569 1572 1577 1576 1575 1577 1575 1574 1576 1578 1579 1580 1581 1581 1578 1579 1582 1581 1580 1580 1581 1583 1584 1585 1587 1588 1588 1589 1580 1574 1582 1584 1576 1576 1582 1585 1582 1581 1583 1581 1580 1579 1579 1581 1581 1582 1581 1576 1577 1575 1568 1573 1578 1569 1559 1565 1575 1571 1560 1545 1527 1521 1521 1518 1518 1518 1517 1518 1518 1518 1518 1518 1519 1518 1517
1568 1568 1567 1567 1567 1566 1566 1566 1567 1567 1568 1569 1569 1569 1575 1577 1575 1577 1578 1576 1577 1580 1580 1581 1581 1581 1581 1579 1581 1582 1580 1580 1582 1582 1582 1583 1583 1584 1586 1587 1588 1586 1582 1586 1589 1584 1577 1575 1579 1581 1580 1581 1582 1582 1581 1582 1584 1584 1587 1585 1580 1582 1580 1574 1577 1578 1573 1570 1569 1571 1564 1548 1534 1520 1515 1517 1516 1516 1516 1515 1517 1516 1516 1516 1515 1516 1514 1513
1567 1567 1566 1566 1565 1565 1565 1565 1566 1566 1567 1568 1568 1573 1576 1572 1570 1574 1573 1575 1579 1580 1580 1582 1581 1579 1580 1581 1583 1583 1580 1580 1582 1583 1583 1583 1583 1583 1586 1587 1588 1590 1586 1582 1587 1592 1584 1575 1578 1581 1581 1581 1581 1582 1583 1583 1583 1585 1588 1585 1581 1585 1585 1583 1585 1585 1588 1588 1577 1566 1551 1538 1530 1517 1513 1518 1515 1515 1515 1513 1515 1514 1513 1514 1512 1512 1511 1509
1566 1566 1565 1565 1565 1564 1565 1565 1565 1566 1567 1568 1570 1573 1573 1569 1569 1572 1572 1574 1577 1577 1579 1581 1580 1578 1578 1580 1582 1584 1582 1581 1582 1583 1583 1585 1586 1586 1588 1588 1589 1591 1587 1583 1587 1590 1581 1575 1580 1582 1580 1582 1582 1582 1584 1581 1580 1584 1585 1582 1584 1589 1587 1586 1590 1595 1602 1593 1573 1562 1547 1536 1531 1515 1510 1519 1515 1512 1515 1512 1512 1511 1510 1511 1509 1507 1507 1505
1566 1565 1565 1565 1564 1564 1564 1564 1565 1566 1566 1568 1570 1572 1573 1572 1573 1575 1575 1575 1575 1576 1577 1575 1575 1575 1574 1575 1579 1582 1582 1582 1582 1581 1582 1585 1584 1585 1588 1589 1589 1590 1588 1587 1588 1589 1584 1576 1578 1582 1580 1581 1582 1581 1583 1582 1580 1581 1581 1580 1586 1590 1588 1590 1590 1592 1598 1589 1569 1561 1551 1542 1537 1519 1508 1515 1513 1509 1512 1510 1510 1509 1508 1507 1504 1503 1503 1502
1565 1565 1565 1564 1564 1564 1564 1565 1565 1566 1566 1568 1570 1571 1574 1574 1574 1576 1576 1576 1575 1577 1575 1571 1572 1576 1574 1573 1576 1581 1582 1580 1580 1581 1581 1583 1581 1582 1587 1588 1588 1589 1589 1588 1585 1590 1590 1577 1574 1584 1582 1580 1583 1582 1580 1582 1582 1580 1579 1582 1584 1582 1583 1589 1587 1582 1589 1588 1572 1562 1555 1546 1538 1523 1507 1505 1506 1504 1506 1508 1508 1506 1504 1502 1500 1499 1499 1498
1565 1565 1564 1564 1564 1564 1564 1565 1566 1566 1566 1569 1570 1570 1573 1575 1575 1576 1576 1576 1576 1576 1574 1573 1574 1577 1577 1575 1575 1580 1581 1578 1579 1581 1578 1579 1580 1582 1585 1586 1587 1588 1588 1588 1586 1588 1592 1580 1572 1580 1584 1581 1582 1580 1576 1578 1582 1582 1581 1584 1584 1582 1583 1587 1589 1587 1587 1587 1577 1565 1553 1534 1521 1515 1506 1500 1501 1501 1502 1504 1503 1501 1499 1498 1497 1496 1496 1495
1564 1564 1564 1564 1563 1564 1565 1565 1565 1566 1567 1570 1572 1571 1574 1575 1575 1575 1576 1576 1576 1575 1575 1575 1575 1574 1576 1579 1578 1578 1581 1580 1580 1579 1577 1579 1580 1581 1585 1585 1585 1588 1587 1588 1588 1587 1592 1586 1574 1576 1584 1581 1575 1573 1571 1570 1577 1581 1580 1582 1583 1585 1589 1588 1590 1593 1588 1585 1585 1579 1560 1527 1505 1505 1503 1498 1499 1500 1499 1499 1497 1496 1495 1494 1494 1493 1492 1491
1563 1563 1563 1563 1563 1564 1564 1564 1566 1568 1569 1572 1574 1574 1575 1574 1574 1576 1576 1576 1576 1576 1576 1577 1576 1574 1575 1577 1577 1578 1580 1580 1579 1578 1578 1579 1578 1578 1582 1584 1583 1587 1587 1587 1588 1587 1588 1588 1580 1576 1576 1570 1566 1570 1572 1570 1573 1574 1574 1577 1577 1579 1585 1583 1584 1591 1592 1587 1584 1583 1570 1530 1498 1497 1499 1497 1498 1497 1496 1496 1493 1492 1492 1490 1490 1489 1488 1487
1562 1563 1563 1563 1563 1564 1564 1566 1569 1571 1571 1572 1573 1574 1575 1574 1575 1576 1575 1575 1576 1576 1577 1577 1576 1577 1576 1575 1577 1578 1578 1578 1578 1578 1576 1577 1578 1578 1581 1583 1583 1585 1585 1586 1588 1587 1587 1589 1586 1578 1570 1566 1568 1572 1574 1573 1574 1575 1573 1575 1577 1578 1578 1576 1576 1582 1589 1591 1587 1592 1583 1532 1491 1492 1498 1494 1496 1494 1492 1493 1490 1489 1488 1487 1487 1485 1484 1482
1562 1562 1562 1563 1564 1564 1564 1567 1570 1572 1573 1574 1574 1575 1575 1575 1575 1575 1575 1575 1576 1576 1576 1576 1576 1576 1575 1575 1577 1577 1576 1575 1575 1577 1576 1577 1580 1581 1582 1583 1583 1584 1585 1586 1586 1587 1587 1587 1585 1575 1567 1568 1573 1575 1575 1575 1576 1575 1572 1574 1577 1575 1573 1574 1577 1580 1582 1583 1583 1591 1581 1526 1486 1492 1497 1492 1494 1493 1490 1490 1488 1487 1486 1484 1483 1481 1479 1478
1561 1562 1562 1563 1564 1564 1564 1566 1567 1570 1574 1575 1575 1575 1575 1575 1575 1575 1575 1575 1575 1576 1575 1576 1576 1575 1575 1577 1576 1576 1576 1574 1573 1576 1577 1577 1579 1581 1582 1583 1583 1583 1583 1583 1584 1584 1583 1583 1581 1573 1564 1561 1564 1566 1569 1572 1574 1572 1569 1572 1573 1574 1578 1579 1583 1587 1581 1572 1572 1579 1564 1518 1486 1491 1494 1491 1493 1490 1487 1488 1486 1484 1483 1479 1479 1477 1475 1474
1561 1562 1563 1563 1563 1564 1564 1565 1565 1568 1574 1575 1574 1574 1574 1574 1574 1574 1574 1574 1575 1575 1575 1575 1575 1575 1576 1577 1576 1577 1578 1575 1573 1576 1578 1578 1580 1582 1582 1582 1583 1583 1583 1583 1584 1583 1582 1583 1580 1572 1565 1561 1556 1552 1555 1561 1567 1568 1566 1569 1570 1572 1576 1573 1578 1586 1577 1569 1572 1566 1541 1504 1484 1487 1490 1489 1491 1487 1485 1485 1483 1482 1479 1476 1475 1473 1471 1471
1562 1562 1563 1563 1563 1564 1564 1565 1565 1566 1571 1572 1571 1573 1574 1573 1574 1574 1574 1574 1574 1575 1575 1575 1575 1576 1576 1577 1576 1576 1578 1577 1576 1576 1576 1577 1580 1582 1582 1582 1583 1583 1583 1584 1584 1584 1586 1586 1581 1573 1567 1560 1552 1548 1554 1560 1562 1560 1560 1565 1568 1570 1571 1570 1575 1576 1567 1568 1567 1547 1526 1509 1492 1488 1488 1485 1485 1484 1482 1482 1480 1478 1475 1473 1471 1469 1467 1466
1561 1562 1564 1563 1563 1563 1564 1565 1565 1565 1567 1567 1566 1570 1572 1573 1574 1574 1574 1574 1574 1575 1575 1575 1575 1575 1574 1575 1575 1575 1577 1579 1578 1576 1576 1577 1580 1582 1582 1582 1583 1583 1583 1584 1583 1585 1586 1581 1578 1577 1569 1561 1557 1556 1559 1563 1560 1554 1555 1559 1562 1566 1571 1570 1566 1557 1556 1562 1547 1519 1520 1523 1502 1488 1488 1484 1481 1480 1478 1477 1476 1473 1471 1469 1467 1466 1463 1461
1561 1562 1564 1563 1562 1563 1563 1564 1565 1565 1566 1567 1567 1569 1571 1572 1573 1572 1572 1574 1575 1574 1574 1574 1574 1573 1573 1573 1572 1572 1576 1577 1575 1575 1576 1578 1580 1582 1581 1582 1583 1582 1583 1585 1583 1585 1585 1577 1575 1577 1570 1563 1565 1564 1561 1562 1560 1554 1553 1555 1557 1562 1567 1563 1554 1548 1550 1549 1527 1507 1514 1518 1500 1489 1488 1483 1480 1478 1474 1473 1472 1469 1466 1464 1463 1461 1458 1456
1562 1562 1563 1563 1563 1564 1564 1564 1565 1566 1566 1568 1568 1569 1571 1571 1570 1570 1572 1574 1574 1574 1574 1572 1570 1572 1573 1574 1572 1571 1572 1570 1568 1571 1574 1576 1578 1579 1578 1578 1580 1582 1583 1584 1583 1584 1583 1576 1576 1579 1572 1563 1562 1561 1560 1561 1559 1553 1550 1550 1552 1555 1559 1555 1546 1543 1546 1541 1525 1515 1517 1512 1497 1490 1487 1482 1479 1476 1471 1469 1468 1465 1462 1460 1458 1456 1453 1451
1561 1561 1562 1563 1563 1564 1565 1565 1566 1566 1567 1568 1567 1568 1570 1570 1568 1570 1571 1571 1570 1573 1574 1571 1569 1571 1572 1574 1572 1570 1569 1567 1566 1568 1571 1572 1574 1576 1574 1571 1575 1582 1583 1582 1584 1585 1581 1576 1576 1579 1573 1561 1555 1556 1557 1558 1558 1552 1543 1540 1544 1548 1551 1552 1546 1542 1546 1541 1528 1523 1525 1514 1493 1485 1485 1481 1476 1473 1469 1465 1464 1461 1457 1455 1453 1450 1448 1445
1561 1561 1561 1562 1563 1565 1566 1566 1567 1567 1567 1568 1566 1566 1568 1568 1567 1568 1569 1569 1569 1570 1571 1570 1569 1570 1572 1573 1572 1569 1568 1569 1568 1568 1569 1569 1569 1570 1570 1568 1570 1578 1581 1583 1583 1583 1582 1579 1576 1579 1571 1557 1554 1558 1555 1554 1555 1548 1534 1527 1532 1539 1541 1540 1537 1536 1536 1531 1523 1525 1524 1506 1484 1478 1480 1477 1472 1470 1465 1460 1459 1456 1452 1451 1448 1444 1442 1440
1560 1560 1561 1561 1562 1565 1566 1566 1567 1567 1565 1565 1565 1565 1566 1565 1567 1567 1566 1568 1569 1568 1569 1569 1569 1570 1570 1570 1570 1568 1568 1569 1568 1568 1568 1568 1568 1568 1568 1568 1569 1572 1577 1582 1582 1582 1584 1579 1575 1579 1569 1553 1555 1560 1556 1553 1545 1528 1517 1514 1518 1526 1529 1526 1523 1522 1521 1519 1517 1514 1503 1486 1477 1476 1475 1471 1469 1466 1461 1456 1455 1451 1447 1446 1444 1439 1436 1434